contact:dominique.lefevre@mio.osupytheas.fr, maurice.libes@osupytheas.fr, didier.mallarino@osupytheas.fr
Project:EMSO http://www.emso-fr.org/EMSO-France
Depth: 2436.0 m
Title:EMSO Ligure Ouest : Data MII capteur CSTAR
DateTime,Latitude,Longitude,Instrument_Serial,Reference_Counts,Signal_Counts,Corrected_Signal_raw_counts,Calculated_Beam_c_inverse_meters,Internal_thermistor_counts
DateTime,Latitude,Longitude,Instrument_Serial,Reference_Counts,Signal_Counts,Corrected_Signal_raw_counts,Calculated_Beam_c_inverse_meters,Internal_thermistor_counts
2023-10-05T00:00:01,42.805,6.029,CST-1368DR,4146,4470,11429,01.249,552
2023-10-05T00:03:03,42.805,6.029,CST-1368DR,4146,4468,11425,01.250,552
2023-10-05T00:06:05,42.805,6.029,CST-1368DR,4146,4469,11426,01.250,552
2023-10-05T00:09:06,42.805,6.029,CST-1368DR,4146,4469,11426,01.250,553
2023-10-05T00:12:08,42.805,6.029,CST-1368DR,4146,4469,11426,01.250,552
2023-10-05T00:15:09,42.805,6.029,CST-1368DR,4146,4469,11427,01.249,553
2023-10-05T00:18:11,42.805,6.029,CST-1368DR,4146,4469,11427,01.249,552
2023-10-05T00:21:13,42.805,6.029,CST-1368DR,4146,4470,11430,01.248,553
2023-10-05T00:24:14,42.805,6.029,CST-1368DR,4146,4469,11426,01.250,553
2023-10-05T00:27:16,42.805,6.029,CST-1368DR,4146,4470,11428,01.249,553
2023-10-05T00:30:17,42.805,6.029,CST-1368DR,4146,4470,11428,01.249,553
2023-10-05T00:33:19,42.805,6.029,CST-1368DR,4146,4469,11428,01.249,553
2023-10-05T00:36:20,42.805,6.029,CST-1368DR,4146,4469,11427,01.249,553
2023-10-05T00:39:22,42.805,6.029,CST-1368DR,4146,4470,11429,01.249,553
2023-10-05T00:42:24,42.805,6.029,CST-1368DR,4146,4470,11428,01.249,553
2023-10-05T00:45:25,42.805,6.029,CST-1368DR,4146,4470,11429,01.249,553
2023-10-05T00:48:27,42.805,6.029,CST-1368DR,4146,4470,11428,01.249,553
2023-10-05T00:51:28,42.805,6.029,CST-1368DR,4146,4470,11428,01.249,552
2023-10-05T00:54:30,42.805,6.029,CST-1368DR,4146,4470,11428,01.249,553
2023-10-05T00:57:31,42.805,6.029,CST-1368DR,4146,4469,11428,01.249,552
2023-10-05T01:00:33,42.805,6.029,CST-1368DR,4146,4469,11428,01.249,553
2023-10-05T01:03:35,42.805,6.029,CST-1368DR,4146,4470,11430,01.248,553
2023-10-05T01:06:36,42.805,6.029,CST-1368DR,4146,4470,11428,01.249,553
2023-10-05T01:09:38,42.805,6.029,CST-1368DR,4146,4469,11426,01.250,553
2023-10-05T01:12:39,42.805,6.029,CST-1368DR,4146,4467,11422,01.251,553
2023-10-05T01:15:41,42.805,6.029,CST-1368DR,4146,4469,11427,01.249,553
2023-10-05T01:18:43,42.805,6.029,CST-1368DR,4146,4470,11430,01.248,553
2023-10-05T01:21:44,42.805,6.029,CST-1368DR,4146,4468,11424,01.250,553
2023-10-05T01:24:46,42.805,6.029,CST-1368DR,4146,4469,11428,01.249,552
2023-10-05T01:27:47,42.805,6.029,CST-1368DR,4146,4470,11428,01.249,553
2023-10-05T01:30:49,42.805,6.029,CST-1368DR,4146,4468,11424,01.250,553
2023-10-05T01:33:50,42.805,6.029,CST-1368DR,4146,4469,11426,01.250,553
2023-10-05T01:36:52,42.805,6.029,CST-1368DR,4146,4468,11425,01.250,553
2023-10-05T01:39:54,42.805,6.029,CST-1368DR,4146,4469,11426,01.250,552
2023-10-05T01:42:55,42.805,6.029,CST-1368DR,4146,4469,11426,01.250,552
2023-10-05T01:45:57,42.805,6.029,CST-1368DR,4146,4469,11427,01.249,553
2023-10-05T01:48:58,42.805,6.029,CST-1368DR,4146,4469,11427,01.249,553
2023-10-05T01:52:00,42.805,6.029,CST-1368DR,4146,4469,11428,01.249,553
2023-10-05T01:55:01,42.805,6.029,CST-1368DR,4146,4470,11428,01.249,553
2023-10-05T01:58:03,42.805,6.029,CST-1368DR,4146,4469,11427,01.249,553
2023-10-05T02:01:05,42.805,6.029,CST-1368DR,4146,4469,11426,01.250,553
2023-10-05T02:04:06,42.805,6.029,CST-1368DR,4146,4468,11424,01.250,552
2023-10-05T02:07:08,42.805,6.029,CST-1368DR,4146,4469,11426,01.250,552
2023-10-05T02:10:09,42.805,6.029,CST-1368DR,4146,4469,11428,01.249,553
2023-10-05T02:13:11,42.805,6.029,CST-1368DR,4146,4469,11426,01.250,552
2023-10-05T02:16:13,42.805,6.029,CST-1368DR,4146,4469,11427,01.249,553
2023-10-05T02:19:14,42.805,6.029,CST-1368DR,4146,4469,11426,01.250,553
2023-10-05T02:22:16,42.805,6.029,CST-1368DR,4146,4469,11428,01.249,552
2023-10-05T02:25:17,42.805,6.029,CST-1368DR,4146,4469,11427,01.249,553
2023-10-05T02:28:19,42.805,6.029,CST-1368DR,4146,4469,11426,01.250,553
2023-10-05T02:31:20,42.805,6.029,CST-1368DR,4146,4469,11426,01.250,553
2023-10-05T02:34:22,42.805,6.029,CST-1368DR,4146,4469,11428,01.249,553
2023-10-05T02:37:24,42.805,6.029,CST-1368DR,4146,4470,11430,01.248,553
2023-10-05T02:40:25,42.805,6.029,CST-1368DR,4146,4470,11428,01.249,553
2023-10-05T02:43:27,42.805,6.029,CST-1368DR,4146,4469,11426,01.250,552
2023-10-05T02:46:28,42.805,6.029,CST-1368DR,4146,4469,11427,01.249,553
2023-10-05T02:49:30,42.805,6.029,CST-1368DR,4146,4469,11427,01.249,553
2023-10-05T02:52:31,42.805,6.029,CST-1368DR,4146,4469,11426,01.250,552
2023-10-05T02:55:33,42.805,6.029,CST-1368DR,4146,4469,11426,01.250,552
2023-10-05T02:58:35,42.805,6.029,CST-1368DR,4146,4469,11427,01.249,552
2023-10-05T03:01:36,42.805,6.029,CST-1368DR,4146,4470,11429,01.249,553
2023-10-05T03:04:38,42.805,6.029,CST-1368DR,4146,4471,11431,01.248,553
2023-10-05T03:07:39,42.805,6.029,CST-1368DR,4146,4470,11429,01.249,553
2023-10-05T03:10:41,42.805,6.029,CST-1368DR,4146,4469,11428,01.249,552
2023-10-05T03:13:43,42.805,6.029,CST-1368DR,4146,4466,11419,01.252,553
2023-10-05T03:16:44,42.805,6.029,CST-1368DR,4146,4468,11424,01.250,553
2023-10-05T03:19:46,42.805,6.029,CST-1368DR,4146,4469,11426,01.250,552
2023-10-05T03:22:47,42.805,6.029,CST-1368DR,4146,4470,11428,01.249,552
2023-10-05T03:25:49,42.805,6.029,CST-1368DR,4146,4468,11425,01.250,553
2023-10-05T03:28:50,42.805,6.029,CST-1368DR,4146,4453,11386,01.264,552
2023-10-05T03:31:52,42.805,6.029,CST-1368DR,4146,4469,11427,01.249,553
2023-10-05T03:34:54,42.805,6.029,CST-1368DR,4146,4470,11430,01.248,552
2023-10-05T03:37:55,42.805,6.029,CST-1368DR,4146,4470,11428,01.249,553
2023-10-05T03:40:57,42.805,6.029,CST-1368DR,4146,4469,11426,01.250,553
2023-10-05T03:43:58,42.805,6.029,CST-1368DR,4146,4469,11426,01.250,553
2023-10-05T03:47:00,42.805,6.029,CST-1368DR,4146,4469,11426,01.250,553
2023-10-05T03:50:01,42.805,6.029,CST-1368DR,4146,4469,11426,01.250,553
2023-10-05T03:53:03,42.805,6.029,CST-1368DR,4146,4467,11422,01.251,553
2023-10-05T03:56:05,42.805,6.029,CST-1368DR,4146,4470,11429,01.249,553
2023-10-05T03:59:06,42.805,6.029,CST-1368DR,4146,4468,11425,01.250,552
2023-10-05T04:02:08,42.805,6.029,CST-1368DR,4146,4469,11426,01.250,553
2023-10-05T04:05:09,42.805,6.029,CST-1368DR,4146,4469,11428,01.249,553
2023-10-05T04:08:11,42.805,6.029,CST-1368DR,4146,4470,11430,01.248,553
2023-10-05T04:11:13,42.805,6.029,CST-1368DR,4146,4470,11430,01.248,553
2023-10-05T04:14:14,42.805,6.029,CST-1368DR,4146,4469,11426,01.250,552
2023-10-05T04:17:16,42.805,6.029,CST-1368DR,4146,4470,11430,01.248,552
2023-10-05T04:20:17,42.805,6.029,CST-1368DR,4146,4470,11428,01.249,553
2023-10-05T04:23:19,42.805,6.029,CST-1368DR,4146,4470,11429,01.249,552
2023-10-05T04:26:20,42.805,6.029,CST-1368DR,4146,4468,11424,01.250,552
2023-10-05T04:29:22,42.805,6.029,CST-1368DR,4146,4470,11430,01.248,553
2023-10-05T04:32:25,42.805,6.029,CST-1368DR,4146,4470,11430,01.248,553
2023-10-05T04:35:27,42.805,6.029,CST-1368DR,4146,4470,11429,01.249,553
2023-10-05T04:38:29,42.805,6.029,CST-1368DR,4146,4469,11428,01.249,553
2023-10-05T04:41:30,42.805,6.029,CST-1368DR,4146,4470,11429,01.249,552
2023-10-05T04:44:32,42.805,6.029,CST-1368DR,4146,4470,11429,01.249,553
2023-10-05T04:47:33,42.805,6.029,CST-1368DR,4146,4470,11428,01.249,553
2023-10-05T04:50:35,42.805,6.029,CST-1368DR,4146,4469,11427,01.249,553
2023-10-05T04:53:36,42.805,6.029,CST-1368DR,4146,4468,11424,01.250,552
2023-10-05T04:56:38,42.805,6.029,CST-1368DR,4146,4470,11428,01.249,553
2023-10-05T04:59:40,42.805,6.029,CST-1368DR,4146,4470,11428,01.249,552
2023-10-05T05:02:41,42.805,6.029,CST-1368DR,4146,4470,11428,01.249,553
2023-10-05T05:05:43,42.805,6.029,CST-1368DR,4146,4470,11430,01.248,552
2023-10-05T05:08:44,42.805,6.029,CST-1368DR,4146,4470,11428,01.249,553
2023-10-05T05:11:46,42.805,6.029,CST-1368DR,4146,4471,11431,01.248,553
2023-10-05T05:14:48,42.805,6.029,CST-1368DR,4146,4470,11429,01.249,553
2023-10-05T05:17:49,42.805,6.029,CST-1368DR,4146,4470,11430,01.248,553
2023-10-05T05:20:51,42.805,6.029,CST-1368DR,4146,4470,11430,01.248,552
2023-10-05T05:23:52,42.805,6.029,CST-1368DR,4146,4470,11430,01.248,552
2023-10-05T05:26:54,42.805,6.029,CST-1368DR,4146,4470,11428,01.249,553
2023-10-05T05:29:55,42.805,6.029,CST-1368DR,4146,4471,11431,01.248,553
2023-10-05T05:32:57,42.805,6.029,CST-1368DR,4146,4470,11430,01.248,553
2023-10-05T05:35:59,42.805,6.029,CST-1368DR,4146,4470,11430,01.248,552
2023-10-05T05:39:00,42.805,6.029,CST-1368DR,4146,4470,11430,01.248,553
2023-10-05T05:42:02,42.805,6.029,CST-1368DR,4146,4470,11430,01.248,552
2023-10-05T05:45:03,42.805,6.029,CST-1368DR,4146,4470,11428,01.249,553
2023-10-05T05:48:05,42.805,6.029,CST-1368DR,4146,4471,11431,01.248,553
2023-10-05T05:51:06,42.805,6.029,CST-1368DR,4146,4469,11427,01.249,552
2023-10-05T05:54:08,42.805,6.029,CST-1368DR,4146,4470,11430,01.248,553
2023-10-05T05:57:10,42.805,6.029,CST-1368DR,4146,4470,11430,01.248,553
2023-10-05T06:00:11,42.805,6.029,CST-1368DR,4146,4471,11431,01.248,553
2023-10-05T06:03:13,42.805,6.029,CST-1368DR,4146,4470,11429,01.249,553
2023-10-05T06:06:14,42.805,6.029,CST-1368DR,4146,4470,11429,01.249,553
2023-10-05T06:09:16,42.805,6.029,CST-1368DR,4146,4470,11430,01.248,553
2023-10-05T06:12:18,42.805,6.029,CST-1368DR,4146,4471,11432,01.248,553
2023-10-05T06:15:19,42.805,6.029,CST-1368DR,4146,4469,11428,01.249,553
2023-10-05T06:18:21,42.805,6.029,CST-1368DR,4146,4469,11426,01.250,553
2023-10-05T06:21:22,42.805,6.029,CST-1368DR,4146,4469,11428,01.249,552
2023-10-05T06:24:24,42.805,6.029,CST-1368DR,4146,4470,11430,01.248,553
2023-10-05T06:27:25,42.805,6.029,CST-1368DR,4146,4470,11428,01.249,552
2023-10-05T06:30:28,42.805,6.029,CST-1368DR,4146,4469,11427,01.249,553
2023-10-05T06:33:30,42.805,6.029,CST-1368DR,4146,4470,11428,01.249,553
2023-10-05T06:36:31,42.805,6.029,CST-1368DR,4146,4470,11430,01.248,553
2023-10-05T06:39:33,42.805,6.029,CST-1368DR,4146,4470,11430,01.248,553
2023-10-05T06:42:35,42.805,6.029,CST-1368DR,4146,4469,11428,01.249,553
2023-10-05T06:45:36,42.805,6.029,CST-1368DR,4146,4470,11429,01.249,553
2023-10-05T06:48:38,42.805,6.029,CST-1368DR,4146,4470,11428,01.249,553
2023-10-05T06:51:39,42.805,6.029,CST-1368DR,4146,4470,11430,01.248,553
2023-10-05T06:54:41,42.805,6.029,CST-1368DR,4146,4469,11428,01.249,552
2023-10-05T06:57:42,42.805,6.029,CST-1368DR,4146,4470,11428,01.249,553
2023-10-05T07:00:44,42.805,6.029,CST-1368DR,4146,4470,11430,01.248,553
2023-10-05T07:03:46,42.805,6.029,CST-1368DR,4146,4470,11430,01.248,553
2023-10-05T07:06:47,42.805,6.029,CST-1368DR,4146,4470,11429,01.249,553
2023-10-05T07:09:49,42.805,6.029,CST-1368DR,4146,4470,11428,01.249,552
2023-10-05T07:12:50,42.805,6.029,CST-1368DR,4146,4469,11427,01.249,553
2023-10-05T07:15:52,42.805,6.029,CST-1368DR,4146,4470,11429,01.249,553
2023-10-05T07:18:54,42.805,6.029,CST-1368DR,4145,4470,11431,01.248,553
2023-10-05T07:21:55,42.805,6.029,CST-1368DR,4146,4468,11425,01.250,552
2023-10-05T07:24:57,42.805,6.029,CST-1368DR,4146,4469,11428,01.249,553
2023-10-05T07:27:58,42.805,6.029,CST-1368DR,4146,4469,11428,01.249,553
2023-10-05T07:31:00,42.805,6.029,CST-1368DR,4146,4470,11428,01.249,552
2023-10-05T07:34:01,42.805,6.029,CST-1368DR,4146,4469,11428,01.249,553
2023-10-05T07:37:03,42.805,6.029,CST-1368DR,4146,4470,11429,01.249,553
2023-10-05T07:40:05,42.805,6.029,CST-1368DR,4146,4470,11429,01.249,553
2023-10-05T07:43:06,42.805,6.029,CST-1368DR,4146,4470,11428,01.249,553
2023-10-05T07:46:08,42.805,6.029,CST-1368DR,4146,4468,11425,01.250,553
2023-10-05T07:49:09,42.805,6.029,CST-1368DR,4146,4470,11428,01.249,553
2023-10-05T07:52:11,42.805,6.029,CST-1368DR,4146,4470,11428,01.249,553
2023-10-05T07:55:12,42.805,6.029,CST-1368DR,4146,4469,11427,01.249,553
2023-10-05T07:58:14,42.805,6.029,CST-1368DR,4146,4469,11426,01.250,553
2023-10-05T08:01:16,42.805,6.029,CST-1368DR,4146,4469,11427,01.249,552
2023-10-05T08:04:17,42.805,6.029,CST-1368DR,4145,4470,11432,01.248,552
2023-10-05T08:07:19,42.805,6.029,CST-1368DR,4146,4468,11425,01.250,552
2023-10-05T08:10:20,42.805,6.029,CST-1368DR,4146,4470,11429,01.249,553
2023-10-05T08:13:22,42.805,6.029,CST-1368DR,4146,4468,11424,01.250,552
2023-10-05T08:16:23,42.805,6.029,CST-1368DR,4145,4469,11429,01.249,552
2023-10-05T08:19:25,42.805,6.029,CST-1368DR,4146,4470,11428,01.249,552
2023-10-05T08:22:27,42.805,6.029,CST-1368DR,4145,4469,11429,01.249,552
2023-10-05T08:25:28,42.805,6.029,CST-1368DR,4145,4469,11430,01.248,553
2023-10-05T08:28:30,42.805,6.029,CST-1368DR,4145,4470,11432,01.248,552
2023-10-05T08:31:31,42.805,6.029,CST-1368DR,4145,4469,11429,01.249,552
2023-10-05T08:34:33,42.805,6.029,CST-1368DR,4145,4469,11430,01.248,553
2023-10-05T08:37:35,42.805,6.029,CST-1368DR,4145,4469,11429,01.249,553
2023-10-05T08:40:36,42.805,6.029,CST-1368DR,4145,4469,11430,01.248,553
2023-10-05T08:43:38,42.805,6.029,CST-1368DR,4145,4468,11428,01.249,553
2023-10-05T08:46:39,42.805,6.029,CST-1368DR,4145,4469,11429,01.249,553
2023-10-05T08:49:41,42.805,6.029,CST-1368DR,4145,4469,11430,01.248,553
2023-10-05T08:52:42,42.805,6.029,CST-1368DR,4145,4470,11432,01.248,552
2023-10-05T08:55:44,42.805,6.029,CST-1368DR,4146,4469,11427,01.249,553
2023-10-05T08:58:46,42.805,6.029,CST-1368DR,4145,4471,11434,01.247,553
2023-10-05T09:01:47,42.805,6.029,CST-1368DR,4145,4470,11432,01.248,553
2023-10-05T09:04:49,42.805,6.029,CST-1368DR,4145,4470,11431,01.248,553
2023-10-05T09:07:50,42.805,6.029,CST-1368DR,4145,4469,11429,01.249,553
2023-10-05T09:10:52,42.805,6.029,CST-1368DR,4145,4469,11430,01.248,553
2023-10-05T09:13:53,42.805,6.029,CST-1368DR,4145,4470,11432,01.248,553
2023-10-05T09:16:55,42.805,6.029,CST-1368DR,4145,4469,11428,01.249,553
2023-10-05T09:19:57,42.805,6.029,CST-1368DR,4145,4469,11430,01.248,553
2023-10-05T09:22:58,42.805,6.029,CST-1368DR,4145,4469,11430,01.248,553
2023-10-05T09:26:00,42.805,6.029,CST-1368DR,4146,4469,11426,01.250,552
2023-10-05T09:29:01,42.805,6.029,CST-1368DR,4145,4469,11430,01.248,552
2023-10-05T09:32:03,42.805,6.029,CST-1368DR,4145,4467,11424,01.250,553
2023-10-05T09:35:05,42.805,6.029,CST-1368DR,4145,4468,11426,01.250,553
2023-10-05T09:38:06,42.805,6.029,CST-1368DR,4145,4468,11427,01.249,552
2023-10-05T09:41:08,42.805,6.029,CST-1368DR,4145,4467,11423,01.251,553
2023-10-05T09:44:09,42.805,6.029,CST-1368DR,4145,4468,11428,01.249,553
2023-10-05T09:47:11,42.805,6.029,CST-1368DR,4145,4466,11421,01.251,552
2023-10-05T09:50:12,42.805,6.029,CST-1368DR,4145,4468,11428,01.249,553
2023-10-05T09:53:14,42.805,6.029,CST-1368DR,4145,4468,11428,01.249,552
2023-10-05T09:56:16,42.805,6.029,CST-1368DR,4145,4467,11424,01.250,553
2023-10-05T09:59:17,42.805,6.029,CST-1368DR,4145,4468,11427,01.249,553
2023-10-05T10:02:19,42.805,6.029,CST-1368DR,4145,4469,11429,01.249,553
2023-10-05T10:05:20,42.805,6.029,CST-1368DR,4145,4469,11430,01.248,553
2023-10-05T10:08:22,42.805,6.029,CST-1368DR,4145,4468,11426,01.250,553
2023-10-05T10:11:23,42.805,6.029,CST-1368DR,4145,4467,11425,01.250,552
2023-10-05T10:14:25,42.805,6.029,CST-1368DR,4145,4468,11426,01.250,553
2023-10-05T10:17:27,42.805,6.029,CST-1368DR,4145,4469,11428,01.249,553
2023-10-05T10:20:28,42.805,6.029,CST-1368DR,4145,4468,11426,01.250,553
2023-10-05T10:23:30,42.805,6.029,CST-1368DR,4145,4466,11423,01.251,553
2023-10-05T10:26:31,42.805,6.029,CST-1368DR,4145,4469,11429,01.249,553
2023-10-05T10:29:33,42.805,6.029,CST-1368DR,4145,4466,11421,01.251,553
2023-10-05T10:32:35,42.805,6.029,CST-1368DR,4145,4467,11424,01.250,553
2023-10-05T10:35:36,42.805,6.029,CST-1368DR,4145,4468,11428,01.249,553
2023-10-05T10:38:38,42.805,6.029,CST-1368DR,4145,4468,11427,01.249,553
2023-10-05T10:41:39,42.805,6.029,CST-1368DR,4145,4467,11423,01.251,553
2023-10-05T10:44:41,42.805,6.029,CST-1368DR,4145,4468,11427,01.249,553
2023-10-05T10:47:43,42.805,6.029,CST-1368DR,4145,4467,11425,01.250,553
2023-10-05T10:50:44,42.805,6.029,CST-1368DR,4145,4469,11428,01.249,553
2023-10-05T10:53:46,42.805,6.029,CST-1368DR,4145,4468,11428,01.249,553
2023-10-05T10:56:47,42.805,6.029,CST-1368DR,4145,4469,11428,01.249,552
2023-10-05T10:59:49,42.805,6.029,CST-1368DR,4145,4468,11428,01.249,553
2023-10-05T11:02:50,42.805,6.029,CST-1368DR,4145,4469,11428,01.249,553
2023-10-05T11:05:52,42.805,6.029,CST-1368DR,4145,4471,11434,01.247,552
2023-10-05T11:08:54,42.805,6.029,CST-1368DR,4145,4470,11432,01.248,552
2023-10-05T11:11:55,42.805,6.029,CST-1368DR,4145,4469,11430,01.248,553
2023-10-05T11:14:57,42.805,6.029,CST-1368DR,4145,4469,11429,01.249,553
2023-10-05T11:17:58,42.805,6.029,CST-1368DR,4145,4470,11433,01.247,553
2023-10-05T11:21:00,42.805,6.029,CST-1368DR,4145,4469,11430,01.248,553
2023-10-05T11:24:01,42.805,6.029,CST-1368DR,4145,4470,11431,01.248,553
2023-10-05T11:27:03,42.805,6.029,CST-1368DR,4145,4469,11429,01.249,553
2023-10-05T11:30:05,42.805,6.029,CST-1368DR,4145,4470,11433,01.247,553
2023-10-05T11:33:06,42.805,6.029,CST-1368DR,4145,4469,11430,01.248,553
2023-10-05T11:36:08,42.805,6.029,CST-1368DR,4145,4469,11428,01.249,552
2023-10-05T11:39:09,42.805,6.029,CST-1368DR,4145,4469,11429,01.249,553
2023-10-05T11:42:11,42.805,6.029,CST-1368DR,4145,4470,11433,01.247,553
2023-10-05T11:45:13,42.805,6.029,CST-1368DR,4145,4469,11430,01.248,553
2023-10-05T11:48:14,42.805,6.029,CST-1368DR,4145,4470,11433,01.247,553
2023-10-05T11:51:16,42.805,6.029,CST-1368DR,4145,4469,11430,01.248,553
2023-10-05T11:54:17,42.805,6.029,CST-1368DR,4145,4469,11430,01.248,553
2023-10-05T11:57:19,42.805,6.029,CST-1368DR,4145,4470,11432,01.248,553
2023-10-05T12:00:20,42.805,6.029,CST-1368DR,4145,4469,11430,01.248,553
2023-10-05T12:03:22,42.805,6.029,CST-1368DR,4145,4469,11430,01.248,553
2023-10-05T12:06:24,42.805,6.029,CST-1368DR,4145,4469,11430,01.248,553
2023-10-05T12:09:25,42.805,6.029,CST-1368DR,4145,4469,11430,01.248,553
2023-10-05T12:12:27,42.805,6.029,CST-1368DR,4145,4470,11431,01.248,552
2023-10-05T12:15:28,42.805,6.029,CST-1368DR,4145,4459,11405,01.257,553
2023-10-05T12:18:30,42.805,6.029,CST-1368DR,4145,4460,11407,01.256,553
2023-10-05T12:21:31,42.805,6.029,CST-1368DR,4145,4460,11405,01.257,553
2023-10-05T12:24:33,42.805,6.029,CST-1368DR,4145,4460,11406,01.257,553
2023-10-05T12:27:35,42.805,6.029,CST-1368DR,4145,4461,11409,01.256,553
2023-10-05T12:30:36,42.805,6.029,CST-1368DR,4145,4462,11411,01.255,553
2023-10-05T12:33:38,42.805,6.029,CST-1368DR,4145,4462,11411,01.255,553
2023-10-05T12:36:39,42.805,6.029,CST-1368DR,4145,4462,11411,01.255,552
2023-10-05T12:39:41,42.805,6.029,CST-1368DR,4145,4460,11407,01.256,553
2023-10-05T12:42:42,42.805,6.029,CST-1368DR,4145,4462,11412,01.255,553
2023-10-05T12:45:44,42.805,6.029,CST-1368DR,4145,4462,11412,01.255,553
2023-10-05T12:48:46,42.805,6.029,CST-1368DR,4145,4463,11413,01.254,553
2023-10-05T12:51:47,42.805,6.029,CST-1368DR,4145,4461,11409,01.256,553
2023-10-05T12:54:49,42.805,6.029,CST-1368DR,4145,4462,11412,01.255,553
2023-10-05T12:57:50,42.805,6.029,CST-1368DR,4145,4463,11414,01.254,553
2023-10-05T13:00:52,42.805,6.029,CST-1368DR,4145,4460,11405,01.257,553
2023-10-05T13:03:54,42.805,6.029,CST-1368DR,4145,4461,11408,01.256,553
2023-10-05T13:06:55,42.805,6.029,CST-1368DR,4145,4463,11414,01.254,553
2023-10-05T13:09:57,42.805,6.029,CST-1368DR,4145,4462,11412,01.255,552
2023-10-05T13:12:58,42.805,6.029,CST-1368DR,4145,4462,11412,01.255,553
2023-10-05T13:16:00,42.805,6.029,CST-1368DR,4145,4462,11411,01.255,552
2023-10-05T13:19:01,42.805,6.029,CST-1368DR,4145,4463,11414,01.254,552
2023-10-05T13:22:03,42.805,6.029,CST-1368DR,4145,4462,11411,01.255,553
2023-10-05T13:25:05,42.805,6.029,CST-1368DR,4145,4462,11412,01.255,552
2023-10-05T13:28:06,42.805,6.029,CST-1368DR,4145,4460,11407,01.256,553
2023-10-05T13:31:08,42.805,6.029,CST-1368DR,4145,4463,11413,01.254,553
2023-10-05T13:34:09,42.805,6.029,CST-1368DR,4145,4461,11410,01.255,553
2023-10-05T13:37:11,42.805,6.029,CST-1368DR,4145,4461,11410,01.255,552
2023-10-05T13:40:12,42.805,6.029,CST-1368DR,4145,4461,11409,01.256,552
2023-10-05T13:43:14,42.805,6.029,CST-1368DR,4145,4463,11414,01.254,552
2023-10-05T13:46:16,42.805,6.029,CST-1368DR,4145,4462,11411,01.255,553
2023-10-05T13:49:17,42.805,6.029,CST-1368DR,4145,4463,11414,01.254,553
2023-10-05T13:52:19,42.805,6.029,CST-1368DR,4145,4461,11409,01.256,553
2023-10-05T13:55:20,42.805,6.029,CST-1368DR,4145,4462,11412,01.255,553
2023-10-05T13:58:22,42.805,6.029,CST-1368DR,4145,4462,11411,01.255,553
2023-10-05T14:01:24,42.805,6.029,CST-1368DR,4145,4462,11412,01.255,553
2023-10-05T14:04:25,42.805,6.029,CST-1368DR,4145,4462,11411,01.255,553
2023-10-05T14:07:27,42.805,6.029,CST-1368DR,4145,4461,11409,01.256,553
2023-10-05T14:10:28,42.805,6.029,CST-1368DR,4145,4462,11411,01.255,552
2023-10-05T14:13:30,42.805,6.029,CST-1368DR,4145,4461,11409,01.256,553
2023-10-05T14:16:31,42.805,6.029,CST-1368DR,4145,4462,11412,01.255,553
2023-10-05T14:19:33,42.805,6.029,CST-1368DR,4145,4463,11414,01.254,553
2023-10-05T14:22:35,42.805,6.029,CST-1368DR,4145,4462,11412,01.255,553
2023-10-05T14:25:36,42.805,6.029,CST-1368DR,4145,4462,11411,01.255,553
2023-10-05T14:28:38,42.805,6.029,CST-1368DR,4145,4463,11413,01.254,553
2023-10-05T14:31:42,42.805,6.029,CST-1368DR,4145,4462,11412,01.255,553
2023-10-05T14:34:43,42.805,6.029,CST-1368DR,4145,4459,11405,01.257,553
2023-10-05T14:37:45,42.805,6.029,CST-1368DR,4145,4462,11411,01.255,553
2023-10-05T14:40:47,42.805,6.029,CST-1368DR,4145,4462,11412,01.255,553
2023-10-05T14:43:48,42.805,6.029,CST-1368DR,4145,4462,11412,01.255,553
2023-10-05T14:46:50,42.805,6.029,CST-1368DR,4145,4462,11411,01.255,553
2023-10-05T14:49:51,42.805,6.029,CST-1368DR,4145,4461,11408,01.256,553
2023-10-05T14:52:53,42.805,6.029,CST-1368DR,4145,4463,11413,01.254,553
2023-10-05T14:55:55,42.805,6.029,CST-1368DR,4145,4462,11412,01.255,553
2023-10-05T14:58:56,42.805,6.029,CST-1368DR,4145,4462,11411,01.255,553
2023-10-05T15:01:58,42.805,6.029,CST-1368DR,4145,4460,11407,01.256,553
2023-10-05T15:04:59,42.805,6.029,CST-1368DR,4145,4462,11411,01.255,552
2023-10-05T15:08:01,42.805,6.029,CST-1368DR,4145,4462,11411,01.255,553
2023-10-05T15:11:02,42.805,6.029,CST-1368DR,4145,4461,11410,01.255,553
2023-10-05T15:14:04,42.805,6.029,CST-1368DR,4145,4461,11409,01.256,553
2023-10-05T15:17:06,42.805,6.029,CST-1368DR,4145,4461,11408,01.256,553
2023-10-05T15:20:07,42.805,6.029,CST-1368DR,4145,4462,11411,01.255,553
2023-10-05T15:23:09,42.805,6.029,CST-1368DR,4145,4461,11410,01.255,552
2023-10-05T15:26:10,42.805,6.029,CST-1368DR,4145,4461,11410,01.255,553
2023-10-05T15:29:12,42.805,6.029,CST-1368DR,4145,4462,11411,01.255,553
2023-10-05T15:32:13,42.805,6.029,CST-1368DR,4145,4462,11411,01.255,553
2023-10-05T15:35:15,42.805,6.029,CST-1368DR,4145,4461,11410,01.255,553
2023-10-05T15:38:17,42.805,6.029,CST-1368DR,4145,4461,11409,01.256,552
2023-10-05T15:41:18,42.805,6.029,CST-1368DR,4145,4462,11411,01.255,553
2023-10-05T15:44:20,42.805,6.029,CST-1368DR,4145,4461,11410,01.255,553
2023-10-05T15:47:21,42.805,6.029,CST-1368DR,4145,4460,11407,01.256,552
2023-10-05T15:50:23,42.805,6.029,CST-1368DR,4145,4460,11407,01.256,552
2023-10-05T15:53:25,42.805,6.029,CST-1368DR,4145,4461,11410,01.255,552
2023-10-05T15:56:26,42.805,6.029,CST-1368DR,4145,4462,11411,01.255,553
2023-10-05T15:59:28,42.805,6.029,CST-1368DR,4145,4462,11411,01.255,553
2023-10-05T16:02:29,42.805,6.029,CST-1368DR,4145,4461,11408,01.256,552
2023-10-05T16:05:31,42.805,6.029,CST-1368DR,4145,4460,11407,01.256,552
2023-10-05T16:08:32,42.805,6.029,CST-1368DR,4145,4462,11411,01.255,553
2023-10-05T16:11:34,42.805,6.029,CST-1368DR,4145,4460,11407,01.256,553
2023-10-05T16:14:36,42.805,6.029,CST-1368DR,4145,4461,11408,01.256,553
2023-10-05T16:17:37,42.805,6.029,CST-1368DR,4145,4462,11411,01.255,553
2023-10-05T16:20:39,42.805,6.029,CST-1368DR,4145,4460,11406,01.257,553
2023-10-05T16:23:40,42.805,6.029,CST-1368DR,4145,4460,11406,01.257,553
2023-10-05T16:26:42,42.805,6.029,CST-1368DR,4145,4459,11404,01.257,553
2023-10-05T16:29:43,42.805,6.029,CST-1368DR,4145,4459,11403,01.258,553
2023-10-05T16:32:45,42.805,6.029,CST-1368DR,4145,4461,11408,01.256,553
2023-10-05T16:35:47,42.805,6.029,CST-1368DR,4145,4460,11406,01.257,552